Location: Alevi-Shua
(42.1928°N, 44.5303°E)
Time: 02:18:00
(UTC+00:00)

Daily predictions for brighter satellites

Satellite Brightness Start Highest point End
(mag) Time Altitude Azimuth Time Altitude Azimuth Time Altitude Azimuth
USA 234 3.8 00:11:50 10° SE 00:16:24 49° ESE 00:16:24 49° ESE
Lacrosse 4 Rocket 3.2 00:39:04 31° NE 00:39:04 31° NE 00:42:55 10° ESE
S3M 3.9 00:44:30 76° SE 00:44:48 78° E 00:50:58 10° N
Cosmos 2221 4.4 00:50:59 24° N 00:50:59 24° N 00:52:45 10° N
Cosmos 2237 4.3 00:43:51 10° NNW 00:49:36 73° ENE 00:55:17 10° SSE
Meteor 2-2 Rocket 4.3 00:49:35 80° SE 00:49:47 82° E 00:55:51 10° NNE
ISS -0.6 00:52:50 13° NNE 00:52:50 13° NNE 00:53:37 10° NE
Cosmos 1745 Rocket 3.9 00:45:35 10° N 00:51:55 85° E 00:55:09 32° S
BREEZE-M DEB (TANK) 4.3 00:54:56 61° WSW 00:56:01 68° SSW 01:17:19 10° SE
Cosmos 1709 Rocket 4.5 00:57:37 10° N 01:03:58 62° E 01:10:16 10° SSE
Lacrosse 5 3.0 01:02:54 28° NNW 01:04:54 40° NE 01:09:39 10° ESE
Landsat 5 4.3 01:05:50 45° ENE 01:05:56 45° ENE 01:09:39 10° N
USA 238 DEB 4.4 01:00:36 10° NNW 01:07:46 58° NE 01:15:13 10° SE
USA 238 4.4 01:00:42 10° NNW 01:07:52 58° NE 01:15:18 10° SE
Cosmos 2360 Rocket 2.1 01:02:42 10° NNW 01:08:26 84° ENE 01:14:06 10° SSE
ALOS 2.9 01:06:25 10° NNE 01:11:01 55° E 01:13:08 30° SSE
ARIANE 5 R/B 4.3 01:11:14 10° N 01:13:00 19° NNW 01:13:00 19° NNW
CZ-2C R/B 2.6 01:16:27 10° N 01:20:23 52° NNW 01:20:23 52° NNW
CZ-4C R/B 3.2 01:19:04 19° S 01:21:59 37° ESE 01:27:03 10° NE
Cosmos 1386 Rocket 4.5 01:17:24 10° NNW 01:23:40 58° W 01:28:17 18° SSW
USA 267 4.4 01:22:05 10° NE 01:27:34 30° NNW 01:30:05 23° NW
SeaSat 1 3.9 01:23:41 10° ESE 01:28:12 38° NE 01:32:44 10° NNW
Milstar 3 Cent rocket 3.8 01:28:13 17° S 01:28:26 17° S 01:31:28 10° SE
OAO 3 Rocket 4.2 01:28:37 31° S 01:29:09 32° S 01:33:26 10° ESE
Cosmos 2333 Rocket 2.8 01:24:11 10° NNW 01:29:52 57° ENE 01:35:32 10° SE
USA 276 3.0 01:31:41 47° NE 01:31:41 47° NE 01:34:05 10° ENE
H-2A R/B 2.6 01:26:49 10° SSE 01:30:59 56° ENE 01:35:04 10° N
BREEZE-M DEB (TANK) 3.8 01:34:32 28° SSE 01:34:32 28° SSE 01:36:41 10° SE
NOSS 3-2 (A) 4.0 01:30:16 10° NW 01:37:59 84° WSW 01:46:37 10° SSE
GENESIS II 4.2 01:38:58 60° NW 01:38:58 60° NW 01:42:54 10° NNE
Cosmos 883 Rocket 4.4 01:35:56 22° SSW 01:40:02 63° W 01:46:07 10° N
Cosmos 2322 Rocket 4.3 01:45:18 10° SSW 01:45:18 10° SSW 01:45:18 10° SSW
Cosmos 2251 Rocket 3.4 01:38:25 35° SW 01:40:40 70° WNW 01:46:03 10° NNE
Cosmos 1484 Rocket 2.5 01:39:29 10° N 01:43:12 81° WNW 01:44:08 49° SSW
Meteor 2-17 Rocket 4.3 01:41:30 10° NNW 01:47:33 75° W 01:53:34 10° S
Geosat 4.1 01:44:58 10° NNE 01:49:55 57° WNW 01:52:08 31° WSW
Cosmos 2219 Rocket 2.4 01:47:41 10° NNW 01:53:22 75° ENE 01:59:02 10° SSE
CZ-4B R/B 4.1 01:49:48 10° NNE 01:53:27 61° E 01:57:03 10° S
CENTAUR R/B 3.3 01:46:59 10° NW 01:55:16 88° NE 02:04:14 10° SE
CZ-3 R/B 4.0 01:42:21 13° SW 01:57:33 31° S 02:04:09 10° ESE
Cosmos 2315 Rocket 4.0 01:52:20 10° SSW 01:58:23 55° WNW 02:04:29 10° N
Cosmos 2344 3.9 01:56:14 26° W 02:00:10 46° NW 02:07:49 10° NNE
COSMOS 2428 3.0 01:54:59 10° NNW 02:00:43 73° ENE 02:06:25 10° SSE
Cosmos 614 Rocket 3.9 01:57:01 15° SSW 02:01:26 69° WNW 02:06:39 10° NNE
COSMOS 2487 3.2 02:01:57 33° NW 02:01:57 33° NW 02:04:48 10° N
USA 234 4.1 01:56:24 10° S 02:01:48 27° SW 02:03:50 23° W
Cosmos 407 Rocket 3.7 02:00:38 10° SSW 02:05:48 74° ESE 02:10:57 10° NNE
Cosmos 1606 3.6 02:07:16 28° WNW 02:07:16 28° WNW 02:10:37 10° NNW
Meteor 1-25 Rocket 4.1 02:05:29 10° N 02:11:04 85° W 02:16:37 10° S
NOSS 3-4 (A) 3.4 02:07:37 10° SSW 02:13:26 87° SE 02:19:40 10° NE
NOSS 3-4 (C) 3.4 02:07:42 10° SSW 02:13:31 87° SE 02:19:45 10° NE
Iridium 51 4.0 02:10:19 10° N 02:14:07 79° W 02:17:40 10° S
Cosmos 1328 Rocket 3.7 02:10:40 10° S 02:14:57 73° E 02:19:16 10° NNE
Cosmos 1190 Rocket 4.4 02:10:01 10° S 02:15:17 69° ESE 02:20:35 10° NNE
GPS 2-04 Rocket1 3.9 02:14:01 19° SW 02:15:53 29° S 02:19:17 10° ESE
METEOR-M 4.3 02:10:46 10° N 02:15:54 49° WNW 02:21:01 10° SW
ATLAS 5 CENTAUR R/B 1.3 02:14:02 13° SW 02:17:29 89° ESE 02:21:49 10° NE
Lacrosse 4 Rocket 2.4 02:15:30 19° WNW 02:17:34 28° WSW 02:21:16 10° SSW
CSL-04 DEB 4.3 02:14:19 10° SSE 02:18:18 87° ENE 02:22:16 10° NNW
NOSS 3-2 (C) 4.1 02:10:51 10° NW 02:18:34 77° WSW 02:27:12 10° SSE
Cosmos 2322 3.9 02:18:15 10° NW 02:23:43 49° WSW 02:29:08 10° S
Cosmos 2074 Rocket 4.0 02:17:30 10° N 02:23:44 85° W 02:29:56 10° S
Cosmos 1805 Rocket 4.4 02:20:14 10° NNW 02:24:04 29° W 02:27:52 10° SSW
Cosmos 1470 Rocket 4.2 02:21:16 10° N 02:25:35 60° E 02:29:51 10° SSE
COSMO-SKYMED 1 2.5 02:22:03 10° S 02:26:22 75° WSW 02:30:44 10° NNW
Cosmos 1602 3.6 02:23:10 10° N 02:27:07 79° W 02:31:00 10° S
ERS-2 3.9 02:24:18 10° SE 02:27:38 35° ENE 02:30:59 10° N
ATLAS 2AS CENTAUR R/B 3.2 02:20:20 10° SSW 02:28:13 77° ESE 02:36:04 10° NE
Cosmos 2154 Rocket 4.4 02:22:09 10° N 02:28:23 69° E 02:34:36 10° SSE
ISS -2.2 02:25:52 10° NW 02:28:57 32° NNE 02:32:00 10° E
Cosmos 1933 3.9 02:26:43 10° SW 02:30:25 35° WNW 02:34:10 10° N
deb Chang Zheng 4 3.7 02:32:14 10° NNE 02:36:32 82° ESE 02:40:51 10° SSW
Envisat 3.5 02:32:20 10° NNE 02:37:24 65° E 02:42:26 10° S
RESURS DK-1 4.2 02:35:18 10° S 02:39:03 35° ESE 02:42:48 10° NE
Cosmos 909 Rocket 4.4 02:34:47 10° WSW 02:41:07 45° NW 02:47:08 10° NNE
Sich 1 4.2 02:42:34 10° NW 02:45:57 22° W 02:49:19 10° SW
SJ-12 4.4 02:42:15 10° N 02:46:00 37° WNW 02:49:44 10° SW
Cosmos 1933 Rocket 4.1 02:41:46 10° N 02:46:13 67° E 02:50:38 10° SSE
ADEOS 4.1 02:41:23 10° N 02:46:13 39° WNW 02:51:02 10° SW
YAOGAN 6 2.6 02:43:59 10° NNE 02:47:30 83° ESE 02:50:59 10° S
Cosmos 1666 Rocket 4.2 02:43:37 10° NNW 02:47:34 34° W 02:51:32 10° SSW
Lacrosse 5 2.3 02:43:09 10° WNW 02:47:54 41° SW 02:52:37 10° SSE
ALOS 3.8 02:45:02 10° NNW 02:47:59 17° WNW 02:50:55 10° WSW
Cosmos 2184 Rocket 4.1 02:42:01 10° NNW 02:48:12 58° W 02:54:24 10° S
Cosmos 1140 Rocket 3.6 02:44:02 10° SW 02:49:07 53° WNW 02:54:13 10° N
Cosmos 2360 Rocket 3.8 02:49:03 10° WNW 02:51:35 13° W 02:54:08 10° WSW
H-2A R/B 2.8 02:48:34 10° N 02:52:25 58° WNW 02:56:13 10° SSW
Meteor 1-31 Rocket 3.9 02:51:40 10° NNW 02:54:47 24° WNW 02:57:52 10° WSW
NOSS 7 (H) 4.2 02:51:10 10° SW 02:54:49 79° NW 02:57:50 10° NNE
CZ-2C R/B 3.6 02:49:41 10° SSE 02:55:09 57° ENE 03:00:39 10° N
Cosmos 1812 2.7 02:53:07 10° S 02:56:58 86° W 03:00:49 10° N
Cosmos 2237 Rocket 2.5 02:52:14 10° NNW 02:57:57 78° ENE 03:03:36 10° SSE
CZ-4B R/B 3.3 02:53:37 10° N 02:58:00 52° WNW 03:02:21 10° SSW
